TimeMST,TemperatureF,Dew PointF,Humidity,Sea Level PressureIn,VisibilityMPH,Wind Direction,Wind SpeedMPH,Gust SpeedMPH,PrecipitationIn,Events,Conditions,WindDirDegrees,DateUTC
12:54 AM,37.0,-0.9,20,29.87,10.0,WSW,11.5,-,N/A,,Clear,250,2012-11-25 07:54:00
1:54 AM,35.1,-2.0,21,29.86,10.0,SW,6.9,-,N/A,,Clear,230,2012-11-25 08:54:00
2:54 AM,28.9,-2.0,26,29.89,10.0,NW,3.5,-,N/A,,Clear,320,2012-11-25 09:54:00
3:54 AM,34.0,-2.9,21,29.88,10.0,SW,5.8,-,N/A,,Clear,220,2012-11-25 10:54:00
4:54 AM,28.0,-2.0,27,29.92,10.0,West,6.9,-,N/A,,Clear,280,2012-11-25 11:54:00
5:54 AM,26.1,-2.0,30,29.96,10.0,WNW,8.1,-,N/A,,Clear,300,2012-11-25 12:54:00
6:54 AM,24.1,-0.9,34,29.99,10.0,WNW,8.1,-,N/A,,Clear,300,2012-11-25 13:54:00
7:54 AM,34.0,-0.0,24,29.95,10.0,WNW,9.2,-,N/A,,Clear,290,2012-11-25 14:54:00
8:54 AM,44.1,-0.0,16,29.93,10.0,West,9.2,-,N/A,,Clear,280,2012-11-25 15:54:00
9:54 AM,53.1,1.0,12,29.90,10.0,WNW,6.9,-,N/A,,Clear,300,2012-11-25 16:54:00
10:54 AM,59.0,3.9,11,29.85,10.0,Calm,Calm,-,N/A,,Clear,0,2012-11-25 17:54:00
11:54 AM,62.1,3.0,9,29.79,10.0,Calm,Calm,-,N/A,,Clear,0,2012-11-25 18:54:00
12:54 PM,64.0,3.0,9,29.75,10.0,ENE,6.9,-,N/A,,Clear,70,2012-11-25 19:54:00
1:54 PM,66.0,1.9,8,29.72,10.0,NE,4.6,-,N/A,,Clear,50,2012-11-25 20:54:00
2:54 PM,64.9,1.0,8,29.74,10.0,ENE,4.6,-,N/A,,Clear,70,2012-11-25 21:54:00
3:54 PM,64.0,-0.0,8,29.72,10.0,ESE,3.5,-,N/A,,Clear,110,2012-11-25 22:54:00
4:54 PM,57.0,-0.9,9,29.77,10.0,ENE,3.5,-,N/A,,Clear,70,2012-11-25 23:54:00
5:54 PM,43.0,-2.0,15,29.84,10.0,WSW,10.4,-,N/A,,Clear,250,2012-11-26 00:54:00
6:54 PM,46.9,3.0,16,29.85,10.0,West,12.7,-,N/A,,Clear,270,2012-11-26 01:54:00
7:54 PM,45.0,3.0,18,29.83,10.0,West,11.5,-,N/A,,Clear,270,2012-11-26 02:54:00
8:54 PM,48.9,6.1,18,29.79,10.0,WSW,18.4,-,N/A,,Clear,250,2012-11-26 03:54:00
9:54 PM,48.9,9.0,20,29.78,10.0,WSW,16.1,-,N/A,,Clear,250,2012-11-26 04:54:00
10:54 PM,46.9,9.0,21,29.78,10.0,WSW,12.7,-,N/A,,Clear,250,2012-11-26 05:54:00
11:54 PM,50.0,10.9,21,29.77,10.0,WSW,17.3,24.2,N/A,,Clear,250,2012-11-26 06:54:00